Regional Weather Roundup
Issued by NWS

Home | Current Version | Previous Version | Text Only | Print | Product List | Glossary Off
Versions: 1 2 3 4 5 6 7 8 9 10 11 12 13 14 15 16 17 18 19 20 21 22 23 24 25 26 27 28 29 30 31 32 33 34 35 36 37 38 39 40 41 42 43 44 45 46 47 48 49 50

000
ASUS43 KMKX 270120
RWRWI

WISCONSIN REGIONAL WEATHER ROUNDUP
NATIONAL WEATHER SERVICE MILWAUKEE/SULLIVAN WI
700 PM CST THU FEB 26 2015

NOTE: "FAIR" INDICATES FEW OR NO CLOUDS BELOW 12,000 FEET WITH NO
SIGNIFICANT WEATHER AND/OR OBSTRUCTIONS TO VISIBILITY.

WIZ001-002-006>008-014>016-023>028-270200-
NORTHWEST WISCONSIN

CITY           SKY/WX    TMP DP  RH WIND       PRES   REMARKS
SUPERIOR ARPT  CLEAR      6 -10  47 W6        30.43R WCI  -5
ASHLAND        CLEAR      2 -12  52 SW6       30.39R WCI  -9
HAYWARD        CLEAR      1 -12  54 CALM      30.37R
SIREN          CLEAR      3  -9  55 W7        30.42R WCI  -9
CUMBERLAND     CLEAR      3 -11  51 NW6       30.38R WCI  -8
RICE LAKE      CLEAR      2 -11  54 CALM      30.41R
CHETEK         CLEAR      4 -10  54 W3        30.40R
LADYSMITH      CLEAR      3 -11  51 NW5       30.37S WCI  -6
EAU CLAIRE     PTCLDY     4 -10  52 W3        30.41R
MENOMONIE      CLEAR      5  -8  53 W5        30.43R WCI  -4
NEW RICHMOND   CLEAR      2 -10  57 NW5       30.43R WCI  -8
OSCEOLA        CLEAR      5  -9  52 NW5       30.47R WCI  -4
$$

WIZ003>005-009-010-017-018-270200-
NORTH CENTRAL WISCONSIN

CITY           SKY/WX    TMP DP  RH WIND       PRES   REMARKS
MANITOWISH WTR CLEAR     -1 -12  61 NW5       30.28R WCI -12
ARBOR VITAE    CLEAR      0  -9  64 CALM      30.28R
WOODRUFF       CLEAR      0  -9  64 CALM      30.28R
RHINELANDER    CLEAR     -1 -12  59 CALM      30.28R
EAGLE RIVER    CLEAR      0 -12  57 CALM      30.27R
LAND O LAKES   CLEAR      0  -9  64 CALM      30.27R
PHILLIPS       CLEAR      2 -11  54 CALM      30.30S
TOMAHAWK       CLEAR     -2 -12  63 CALM      30.30R
MEDFORD        CLEAR      2  -9  58 W6        30.31R WCI  -9
MERRILL        CLEAR      5 -10  51 CALM      30.31R
$$

WIZ029-030-035-036-043>047-270200-
CENTRAL WISCONSIN

CITY           SKY/WX    TMP DP  RH WIND       PRES   REMARKS
WAUSAU         CLEAR      6  -8  52 NW7       30.31R WCI  -6
MOSINEE        CLEAR      5  -8  56 W8        30.33R WCI  -8
MARSHFIELD     CLEAR      3  -9  57 W6        30.34R WCI  -8
STEVENS POINT  CLEAR      4  -7  60 W5        30.35R WCI  -5
WAUPACA        FAIR       9  -7  47 W6        30.37R WCI   0
WAUTOMA        CLEAR      1  -9  63 W3        30.38R
WISC RAPIDS    CLEAR      4 -10  52 W5        30.37R WCI  -5
CAMP DOUGLAS   CLEAR      5  -6  60 NW9       30.39R WCI  -9
$$

WIZ011>013-019>022-031-037>040-048>050-270200-
NORTHEAST WISCONSIN

CITY           SKY/WX    TMP DP  RH WIND       PRES   REMARKS
ANTIGO         CLEAR      1 -11  57 NW5       30.28R WCI  -8
SHAWANO        CLEAR     11  -8  42 CALM      30.35R
OCONTO         FAIR       0  -7  74 CALM      30.36R
STURGEON BAY   CLEAR      1  -9  60 CALM      30.36R
GREEN BAY      CLEAR      9  -3  58 SW5       30.35R WCI   1
MANITOWOC      CLEAR      3  -7  63 CALM      30.37R
APPLETON       PTCLDY     9  -9  43 W6        30.34R WCI  -1
CLINTONVILLE   CLEAR      9  -8  47 W6        30.35R WCI  -1
OSHKOSH        CLEAR      7  -4  60 CALM      30.35R
$$

WIZ032>034-041-042-053>061-270200-
SOUTHWEST WISCONSIN

CITY           SKY/WX    TMP DP  RH WIND       PRES   REMARKS
LA CROSSE      CLEAR      3  -8  60 NW7       30.44R WCI  -9
SPARTA         CLEAR      2  -9  59 CALM      30.42R
VIROQUA        CLEAR      2  -8  62 NW5       30.37R WCI  -8
BOSCOBEL       CLEAR      8  -6  52 NW6       30.43R WCI  -2
PRAIRIE DU CHI CLEAR      5  -8  56 W7        30.45R WCI  -7
PLATTEVILLE    CLEAR      6  -6  57 NW8       30.38R WCI  -7
$$

WIZ056-057-062-063-064-067-068-270200-
SOUTH CENTRAL WISCONSIN

CITY           SKY/WX    TMP DP  RH WIND       PRES   REMARKS
REEDSBURG      PTCLDY     8  -5  55 NW7       30.38R WCI  -4
BARABOO/DELLS  CLEAR      7  -9  48 NW3       30.37R
LONE ROCK      MOCLDY     9  -5  53 NW10      30.41R WCI  -5
MINERAL POINT  PTCLDY     9  -6  52 NW5       30.36R WCI   0
MADISON        CLEAR      7  -7  52 NW5       30.37R WCI  -2
MIDDLETON      CLEAR      2  -8  62 NW3       30.37R
WATERTOWN      CLEAR      5  -5  64 CALM      30.36R
MONROE         CLEAR      9  -4  56 NW6       30.35R WCI  -1
JANESVILLE     CLEAR      9  -6  52 NW5       30.37R WCI   0
$$

WIZ051-052-058>065-066-070>072-270200-
SOUTHEAST WISCONSIN

CITY           SKY/WX    TMP DP  RH WIND       PRES   REMARKS
MILWAUKEE      PTCLDY    10  -6  48 NW9       30.37R WCI  -3
WAUKESHA       CLEAR      7  -6  56 CALM      30.36R
MILWAUKEE/TIMM CLEAR      9  -8  47 NW7       30.37R WCI  -3
RACINE         CLEAR      9  -6  50 NW8       30.38R WCI  -3
BURLINGTON     CLEAR      3  -8  60 CALM      30.37R
KENOSHA        CLEAR      6  -6  57 NW6       30.36R WCI  -4
FOND DU LAC    CLEAR      3  -6  66 SW3       30.36R
SHEBOYGAN      CLEAR      3  -7  63 CALM      30.36R
WEST BEND      CLEAR      7  -6  56 CALM      30.35R
JUNEAU         CLEAR      6  -5  60 CALM      30.36R
$$

LSZ147-162-270200-
LAKE SUPERIOR

STATION/POSITION TIME  TEMP    WIND        PRES    WAVE
                       AIR SEA DIR/SP/G            HT/PER
                 (UTC) (F)     (DEG/KT/KT) (MB)    (FT/S)
DEVILS ISLAND    0100    9     300/ 17/ 19 1030.2R
PORT WING        0000    8     240/  5/  8 1029.1
SAXON HARBOR     0000    7      CALM  /  4 1028.8R
$$

LMZ867-665-643>646-270200-
LAKE MICHIGAN

STATION/POSITION TIME  TEMP    WIND        PRES    WAVE
                       AIR SEA DIR/SP/G            HT/PER
                 (UTC) (F)     (DEG/KT/KT) (MB)    (FT/S)
NORTHPORT PIER   0023    5     240/  3/  4 1027.4R
SISTER BAY       2258   16        CALM       N/A
KEWAUNEE LAKESHO 0000    9      CALM  /  1 1026.5R
SHEBOYGAN LAKESH 0100   10     300/  4/  5 1030.4R
PORT WASHINGTON  0040   10     300/  3/  4 1029.1R
MILWAUKEE LAKESH 0100   11     320/  6/  8   N/A
KENOSHA   LAKESH 0100    9     310/  9/ 12 1028.4R
$$

TC  - TEMPERATURE IN CELSIUS
VSB - VISIBILITY IN STATUTE MILES
WCI - WIND CHILL INDEX
HX  - HEAT INDEX




USA.gov is the U.S. government's official web portal to all federal, state and local government web resources and services.